User: anonymous   Login
Location: Unspecified
(0.0000°N, 0.0000°E)
Time: 18:03:18
(UTC+00:00)
Language:

SUPERVIEW NEO 3-02 - Orbit

View from above orbital plane
View from above orbital plane
View from above satellite
View from above satellite

Ground track
Ground track

The orbit is defined by the following mean orbital elements,

1 63208U          26145.54910139 +.00000000 +00000-0 +37590-3 0 00009
2 63208  97.4516 224.9710 0001166 136.2367 223.8963 15.24651928    06
Epoch (UTC): 25 May 2026 13:10:42
Eccentricity: 0.0001166
inclination: 97.4516°
perigee height: 491 km
apogee height: 493 km
right ascension of ascending node: 224.9710°
argument of perigee: 136.2367°
revolutions per day: 15.24651928
mean anomaly at epoch: 223.8963°

The dashed part of the orbit path shows where the satellite is in the earth's shadow,  

DLR